EN

Hourly Weather Bolshie Korchicy

Today, 20 October, Tuesday

Time Temperature Precipitation Wind Pressure Humidity
00:00 +3°C° 0 mm 3 mps 754 mmHg 85%
01:00 +3°C° 0 mm 3 mps 754 mmHg 86%
02:00 +3°C° 0 mm 3 mps 754 mmHg 86%
03:00 +3°C° 0 mm 3 mps 754 mmHg 88%
04:00 +2°C° 0 mm 3 mps 754 mmHg 89%
05:00 +2°C° 0 mm 3 mps 754 mmHg 90%
06:00 +2°C° 0 mm 3 mps 754 mmHg 90%
07:00 +3°C° 0 mm 3 mps 755 mmHg 90%
08:00 +3°C° 0 mm 3 mps 755 mmHg 89%
09:00 +4°C° 0 mm 3 mps 755 mmHg 83%
10:00 +7°C° 0 mm 3 mps 756 mmHg 76%
11:00 +7°C° 0 mm 4 mps 756 mmHg 70%
12:00 +9°C° 0 mm 3 mps 756 mmHg 67%
13:00 +9°C° 0 mm 3 mps 756 mmHg 64%
14:00 +10°C° 0 mm 2 mps 756 mmHg 61%
15:00 +9°C° 0 mm 2 mps 756 mmHg 64%
16:00 +9°C° 0 mm 2 mps 755 mmHg 66%
17:00 +8°C° 0 mm 2 mps 755 mmHg 69%
18:00 +8°C° 0 mm 2 mps 754 mmHg 71%
19:00 +7°C° 0 mm 3 mps 754 mmHg 72%
20:00 +7°C° 0 mm 3 mps 754 mmHg 74%
21:00 +7°C° 0 mm 3 mps 754 mmHg 76%
22:00 +6°C° 0 mm 4 mps 754 mmHg 78%
23:00 +6°C° 0 mm 4 mps 753 mmHg 80%

Tomorrow, 21 October, Wednesday

Time Temperature Precipitation Wind Pressure Humidity
00:00 +6°C° 0 mm 4 mps 753 mmHg 78%
01:00 +6°C° 0 mm 5 mps 753 mmHg 76%
02:00 +7°C° 0 mm 5 mps 752 mmHg 74%
03:00 +7°C° 0 mm 5 mps 752 mmHg 74%
04:00 +7°C° 0 mm 5 mps 751 mmHg 74%
05:00 +6°C° 0 mm 5 mps 750 mmHg 73%
06:00 +7°C° 0 mm 5 mps 750 mmHg 72%
07:00 +7°C° 0 mm 5 mps 750 mmHg 70%
08:00 +7°C° 0 mm 5 mps 750 mmHg 69%
09:00 +8°C° 0 mm 5 mps 750 mmHg 67%
10:00 +9°C° 0 mm 6 mps 750 mmHg 65%
11:00 +9°C° 0 mm 6 mps 750 mmHg 64%
12:00 +9°C° 0 mm 5 mps 749 mmHg 65%
13:00 +10°C° 0 mm 5 mps 749 mmHg 66%
14:00 +11°C° 0 mm 4 mps 749 mmHg 66%
15:00 +11°C° 0 mm 3 mps 749 mmHg 67%
16:00 +11°C° 0 mm 3 mps 749 mmHg 68%
17:00 +12°C° 0 mm 2 mps 749 mmHg 68%
18:00 +12°C° 0 mm 2 mps 749 mmHg 69%
19:00 +10°C° 0 mm 2 mps 749 mmHg 70%
20:00 +10°C° 0 mm 2 mps 749 mmHg 71%
21:00 +10°C° 0 mm 2 mps 749 mmHg 74%
22:00 +9°C° 0 mm 3 mps 749 mmHg 76%
23:00 +9°C° 0 mm 3 mps 749 mmHg 79%

Day after tomorrow, 22 October, Thursday

Time Temperature Precipitation Wind Pressure Humidity
00:00 +9°C° 0 mm 3 mps 749 mmHg 79%
01:00 +9°C° 0 mm 3 mps 749 mmHg 80%
02:00 +8°C° 0 mm 4 mps 749 mmHg 81%
03:00 +8°C° 0 mm 4 mps 749 mmHg 80%
04:00 +8°C° 0 mm 4 mps 749 mmHg 80%
05:00 +8°C° 0 mm 4 mps 749 mmHg 79%
06:00 +8°C° 0 mm 5 mps 749 mmHg 79%
07:00 +8°C° 0 mm 5 mps 749 mmHg 79%
08:00 +9°C° 0 mm 5 mps 749 mmHg 79%
09:00 +10°C° 0 mm 5 mps 749 mmHg 75%
10:00 +13°C° 0 mm 5 mps 749 mmHg 71%
11:00 +14°C° 0 mm 5 mps 749 mmHg 66%
12:00 +15°C° 0 mm 5 mps 749 mmHg 65%
13:00 +16°C° 0 mm 5 mps 750 mmHg 63%
14:00 +17°C° 0 mm 5 mps 750 mmHg 62%
15:00 +17°C° 0 mm 4 mps 750 mmHg 66%
16:00 +15°C° 0 mm 4 mps 749 mmHg 70%
17:00 +14°C° 0 mm 3 mps 749 mmHg 74%
18:00 +14°C° 0 mm 3 mps 749 mmHg 75%
19:00 +13°C° 0 mm 4 mps 749 mmHg 76%
20:00 +13°C° 0 mm 4 mps 749 mmHg 77%
21:00 +12°C° 0 mm 4 mps 749 mmHg 78%
22:00 +12°C° 0 mm 4 mps 749 mmHg 79%
23:00 +12°C° 0 mm 3 mps 749 mmHg 79%

23 October, Friday

Time Temperature Precipitation Wind Pressure Humidity
00:00 +11°C° 0 mm 3 mps 749 mmHg 80%
01:00 +11°C° 0 mm 3 mps 749 mmHg 81%
02:00 +11°C° 0 mm 3 mps 749 mmHg 83%
03:00 +11°C° 0 mm 3 mps 749 mmHg 83%
04:00 +10°C° 0 mm 3 mps 748 mmHg 84%
05:00 +10°C° 0 mm 3 mps 748 mmHg 85%
06:00 +10°C° 0 mm 3 mps 748 mmHg 85%
07:00 +10°C° 0 mm 4 mps 747 mmHg 85%
08:00 +10°C° 0 mm 4 mps 747 mmHg 85%
09:00 +11°C° 0 mm 4 mps 747 mmHg 80%
10:00 +13°C° 0 mm 5 mps 747 mmHg 76%
11:00 +14°C° 0 mm 5 mps 747 mmHg 71%
12:00 +14°C° 0 mm 5 mps 747 mmHg 69%
13:00 +15°C° 0 mm 5 mps 747 mmHg 67%
14:00 +15°C° 0 mm 5 mps 746 mmHg 65%
15:00 +15°C° 0 mm 4 mps 746 mmHg 69%
16:00 +14°C° 0 mm 4 mps 746 mmHg 72%
17:00 +14°C° 0 mm 3 mps 746 mmHg 75%
18:00 +13°C° 0 mm 3 mps 746 mmHg 80%
19:00 +12°C° 0 mm 3 mps 746 mmHg 85%
20:00 +11°C° 0 mm 3 mps 747 mmHg 90%
21:00 +11°C° 0 mm 3 mps 747 mmHg 92%
22:00 +11°C° 0 mm 3 mps 747 mmHg 93%
23:00 +12°C° 0 mm 2 mps 747 mmHg 94%

24 October, Saturday

Time Temperature Precipitation Wind Pressure Humidity
00:00 +12°C° 0 mm 2 mps 747 mmHg 95%
01:00 +12°C° 0 mm 2 mps 747 mmHg 95%
02:00 +10°C° 0 mm 2 mps 747 mmHg 95%
03:00 +10°C° 0 mm 2 mps 747 mmHg 94%
04:00 +12°C° 0 mm 1 mps 747 mmHg 93%
05:00 +12°C° 0 mm 1 mps 747 mmHg 92%
06:00 +12°C° 0 mm 1 mps 746 mmHg 92%
07:00 +12°C° 0 mm 1 mps 746 mmHg 92%
08:00 +12°C° 0 mm 1 mps 746 mmHg 92%
09:00 +12°C° 0.6 mm 2 mps 746 mmHg 93%
10:00 +12°C° 0.6 mm 2 mps 745 mmHg 94%
11:00 +12°C° 0.6 mm 2 mps 745 mmHg 96%
12:00 +11°C° 2.7 mm 3 mps 745 mmHg 95%
13:00 +11°C° 2.7 mm 4 mps 745 mmHg 94%
14:00 +10°C° 2.7 mm 5 mps 744 mmHg 93%
15:00 +10°C° 0.5 mm 5 mps 744 mmHg 92%
16:00 +10°C° 0.5 mm 4 mps 744 mmHg 91%
17:00 +10°C° 0.5 mm 4 mps 744 mmHg 90%
18:00 +10°C° 0.5 mm 4 mps 745 mmHg 88%
19:00 +9°C° 0.5 mm 5 mps 745 mmHg 86%
20:00 +9°C° 0.5 mm 6 mps 746 mmHg 83%
21:00 +8°C° 0 mm 6 mps 746 mmHg 85%
22:00 +8°C° 0 mm 5 mps 747 mmHg 87%
23:00 +7°C° 0 mm 5 mps 747 mmHg 88%

25 October, Sunday

Time Temperature Precipitation Wind Pressure Humidity
00:00 +7°C° 0 mm 5 mps 747 mmHg 87%
01:00 +7°C° 0 mm 6 mps 748 mmHg 87%
02:00 +5°C° 0 mm 6 mps 748 mmHg 86%
03:00 +6°C° 0 mm 5 mps 748 mmHg 87%
04:00 +5°C° 0 mm 5 mps 749 mmHg 88%
05:00 +5°C° 0 mm 5 mps 749 mmHg 89%
06:00 +5°C° 0 mm 5 mps 749 mmHg 91%
07:00 +5°C° 0 mm 5 mps 750 mmHg 92%
08:00 +5°C° 0 mm 4 mps 750 mmHg 93%
09:00 +6°C° 0 mm 5 mps 750 mmHg 87%
10:00 +7°C° 0 mm 5 mps 751 mmHg 81%
11:00 +8°C° 0 mm 5 mps 751 mmHg 75%
12:00 +9°C° 0 mm 5 mps 751 mmHg 72%
13:00 +10°C° 0 mm 4 mps 752 mmHg 69%
14:00 +11°C° 0 mm 4 mps 752 mmHg 65%
15:00 +10°C° 0 mm 3 mps 752 mmHg 69%
16:00 +9°C° 0 mm 2 mps 752 mmHg 73%
17:00 +9°C° 0 mm 2 mps 752 mmHg 76%
18:00 +9°C° 0 mm 1 mps 752 mmHg 78%
19:00 +9°C° 0 mm 1 mps 752 mmHg 79%
20:00 +9°C° 0 mm 1 mps 752 mmHg 80%
21:00 +8°C° 0 mm 1 mps 752 mmHg 81%
22:00 +8°C° 0 mm 1 mps 753 mmHg 82%
23:00 +7°C° 0 mm 1 mps 753 mmHg 83%

26 October, Monday

Time Temperature Precipitation Wind Pressure Humidity
00:00 +7°C° 0 mm 1 mps 753 mmHg 85%
01:00 +7°C° 0 mm 1 mps 753 mmHg 87%
02:00 +5°C° 0 mm 2 mps 753 mmHg 89%
03:00 +5°C° 0 mm 2 mps 753 mmHg 90%
04:00 +5°C° 0 mm 2 mps 753 mmHg 91%
05:00 +4°C° 0 mm 2 mps 752 mmHg 92%
06:00 +4°C° 0 mm 2 mps 752 mmHg 91%
07:00 +4°C° 0 mm 2 mps 752 mmHg 91%
08:00 +3°C° 0 mm 3 mps 753 mmHg 91%
09:00 +5°C° 0 mm 3 mps 752 mmHg 84%
10:00 +7°C° 0 mm 4 mps 752 mmHg 77%
11:00 +8°C° 0 mm 4 mps 752 mmHg 70%
12:00 +9°C° 0 mm 5 mps 752 mmHg 68%
13:00 +9°C° 0 mm 5 mps 752 mmHg 65%
14:00 +10°C° 0 mm 5 mps 752 mmHg 63%
15:00 +9°C° 0 mm 5 mps 751 mmHg 67%
16:00 +8°C° 0 mm 4 mps 751 mmHg 71%
17:00 +7°C° 0 mm 4 mps 751 mmHg 75%
18:00 +7°C° 0 mm 4 mps 751 mmHg 77%
19:00 +6°C° 0 mm 4 mps 751 mmHg 79%
20:00 +6°C° 0 mm 5 mps 751 mmHg 82%
21:00 +6°C° 0 mm 5 mps 751 mmHg 82%
22:00 +5°C° 0 mm 5 mps 751 mmHg 82%
23:00 +5°C° 0 mm 5 mps 751 mmHg 83%
Show more